Home > Weather > King's Lynn > Past weeks

Flag for United Kingdom Past Weather in King's Lynn, England, United Kingdom — Yesterday and Last 2 Weeks

Now
64 °F

Broken clouds.


Feels Like: 64 °F
Forecast: 57 / 66 °F
Wind: 10 mph from Southwest

Location: Marham

Current Time: Jun 30, 2016 at 8:38:00 PM

Latest Report: Jun 30, 2016 at 7:50 PM


Visibility: N/A

Pressure: 29.74 "Hg

Humidity: 64%

Dew Point: 52 °F

Location of King's LynnLocation

Past Weather in King's Lynn — Graph

°F

King's Lynn Temperature Yesterday

Maximum temperature yesterday: 63 °F (at 11:50 AM)
Minimum temperature yesterday: 52 °F (at 4:50 AM)
Average temperature yesterday: 57 °F

High & Low Weather Summary for the Past Weeks

 TemperatureHumidityPressure
High72 °F (Jun 23, 1:50 PM)100% (Jun 16, 9:50 PM)30.21 "Hg (Jun 16, 9:50 PM)
Low48 °F (Jun 28, 4:50 AM)53% (Jun 21, 2:50 PM)29.45 "Hg (Jun 15, 6:50 PM)
Average60 °F84%29.92 "Hg
* Reported Jun 15 6:50 PM — Jun 30 6:50 PM, King's Lynn, Weather by CustomWeather, © 2016

Note: Actual official high and low records may vary slightly from our data, if they occured in-between our weather recording intervals... More about our weather records

Advertising

King's Lynn Weather History for the Previous 24 Hours

Scroll right to see more
 ConditionsComfort  
Time TempWeatherWind HumidityBarometerVisibility
6:50 PM
Thu, Jun 30
64 °FPartly sunny.7 mph68%29.74 "HgN/A
5:50 PM64 °FPartly sunny.13 mph64%29.77 "HgN/A
4:50 PM64 °FScattered showers. Broken clouds.12 mph68%29.77 "HgN/A
3:50 PM70 °FScattered clouds.14 mph57%29.77 "HgN/A
2:50 PM70 °FScattered clouds.14 mph57%29.77 "HgN/A
1:50 PM68 °FScattered clouds.9 mph60%29.77 "HgN/A
12:50 PM66 °FScattered clouds.10 mph60%29.77 "HgN/A
11:50 AM64 °FScattered clouds.13 mph64%29.77 "HgN/A
10:50 AM64 °FScattered clouds.13 mph68%29.77 "HgN/A
9:50 AM63 °FScattered clouds.8 mph77%29.77 "HgN/A
8:50 AM59 °FPartly sunny.7 mph88%29.77 "HgN/A
7:50 AM57 °FScattered clouds.9 mph94%29.77 "Hg4 mi
6:50 AM55 °FFog.8 mph94%29.74 "Hg4 mi
5:50 AM52 °FFog.6 mph100%29.74 "Hg3 mi
4:50 AM52 °FFog.5 mph100%29.74 "Hg4 mi
2:50 AM55 °FPassing clouds.8 mph94%29.71 "HgN/A
1:50 AM55 °FPassing clouds.8 mph94%29.71 "HgN/A
12:50 AM55 °FPassing clouds.12 mph94%29.71 "HgN/A
11:50 PM
Wed, Jun 29
55 °FPassing clouds.12 mph100%29.68 "HgN/A
10:50 PM57 °FPassing clouds.15 mph94%29.68 "HgN/A
9:50 PM57 °FPassing clouds.13 mph94%29.68 "HgN/A
8:50 PM59 °FPartly sunny.14 mph88%29.65 "HgN/A
Weather by CustomWeather, © 2016

See weather overviewHow to use our weather pages